Time,TemperatureF,DewpointF,PressureIn,WindDirection,WindDirectionDegrees,WindSpeedMPH,WindSpeedGustMPH,Humidity,HourlyPrecipIn,Conditions,Clouds,dailyrainin,SoftwareType,DateUTC
2013-01-07 00:01:00,35.2,30.0,30.27,East,88,10.0,10.0,80,0.00,,,0.00,weatherlink.com 1.10,2013-01-07 05:01:00,
2013-01-07 00:16:00,35.2,30.0,30.27,East,92,3.0,10.0,80,0.00,,,0.00,weatherlink.com 1.10,2013-01-07 05:16:00,
2013-01-07 00:31:00,35.0,29.0,30.27,ESE,109,2.0,7.0,80,0.00,,,0.00,weatherlink.com 1.10,2013-01-07 05:31:00,
2013-01-07 00:46:00,34.7,29.0,30.27,ESE,119,1.0,9.0,81,0.00,,,0.00,weatherlink.com 1.10,2013-01-07 05:46:00,
2013-01-07 01:01:00,34.5,29.0,30.27,ESE,115,3.0,13.0,81,0.00,,,0.00,weatherlink.com 1.10,2013-01-07 06:01:00,
2013-01-07 01:16:00,34.3,29.0,30.27,East,96,2.0,9.0,81,0.00,,,0.00,weatherlink.com 1.10,2013-01-07 06:16:00,
2013-01-07 01:31:00,34.0,29.0,30.27,ENE,60,5.0,8.0,82,0.00,,,0.00,weatherlink.com 1.10,2013-01-07 06:31:00,
2013-01-07 01:46:00,33.8,29.0,30.27,ENE,77,7.0,8.0,82,0.00,,,0.00,weatherlink.com 1.10,2013-01-07 06:46:00,
2013-01-07 02:01:00,33.7,29.0,30.27,ENE,67,3.0,8.0,82,0.00,,,0.00,weatherlink.com 1.10,2013-01-07 07:01:00,
2013-01-07 02:16:00,33.5,28.0,30.28,East,81,2.0,8.0,81,0.00,,,0.00,weatherlink.com 1.10,2013-01-07 07:16:00,
2013-01-07 02:32:00,33.4,28.0,30.30,ESE,103,2.0,9.0,81,0.00,,,0.00,weatherlink.com 1.10,2013-01-07 07:32:00,
2013-01-07 02:47:00,33.3,28.0,30.30,ESE,111,1.0,7.0,81,0.00,,,0.00,weatherlink.com 1.10,2013-01-07 07:47:00,
2013-01-07 03:02:00,32.9,28.0,30.31,East,84,6.0,12.0,81,0.00,,,0.00,weatherlink.com 1.10,2013-01-07 08:02:00,
2013-01-07 03:17:00,32.3,26.0,30.31,East,80,3.0,9.0,79,0.00,,,0.00,weatherlink.com 1.10,2013-01-07 08:17:00,
2013-01-07 03:32:00,31.4,26.0,30.31,NE,51,6.0,9.0,79,0.00,,,0.00,weatherlink.com 1.10,2013-01-07 08:32:00,
2013-01-07 03:47:00,30.9,25.0,30.32,East,80,3.0,9.0,79,0.00,,,0.00,weatherlink.com 1.10,2013-01-07 08:47:00,
2013-01-07 04:02:00,30.8,25.0,30.33,ESE,114,2.0,7.0,80,0.00,,,0.00,weatherlink.com 1.10,2013-01-07 09:02:00,
2013-01-07 04:17:00,30.6,25.0,30.33,ESE,119,5.0,9.0,81,0.00,,,0.00,weatherlink.com 1.10,2013-01-07 09:17:00,
2013-01-07 04:32:00,30.6,25.0,30.33,ESE,123,3.0,11.0,81,0.00,,,0.00,weatherlink.com 1.10,2013-01-07 09:32:00,
2013-01-07 04:47:00,30.2,25.0,30.33,East,86,3.0,9.0,81,0.00,,,0.00,weatherlink.com 1.10,2013-01-07 09:47:00,
2013-01-07 05:02:00,29.9,25.0,30.33,ESE,118,1.0,11.0,81,0.00,,,0.00,weatherlink.com 1.10,2013-01-07 10:02:00,
2013-01-07 05:17:00,29.7,25.0,30.33,East,79,6.0,10.0,82,0.00,,,0.00,weatherlink.com 1.10,2013-01-07 10:17:00,
2013-01-07 05:32:00,29.6,25.0,30.34,ESE,115,3.0,9.0,83,0.00,,,0.00,weatherlink.com 1.10,2013-01-07 10:32:00,
2013-01-07 05:47:00,29.5,25.0,30.35,ESE,119,1.0,7.0,82,0.00,,,0.00,weatherlink.com 1.10,2013-01-07 10:47:00,
2013-01-07 06:02:00,29.3,24.0,30.36,SE,124,0.0,8.0,82,0.00,,,0.00,weatherlink.com 1.10,2013-01-07 11:02:00,
2013-01-07 06:17:00,29.2,24.0,30.36,ESE,116,0.0,6.0,82,0.00,,,0.00,weatherlink.com 1.10,2013-01-07 11:17:00,
2013-01-07 06:32:00,28.9,24.0,30.37,East,92,0.0,2.0,82,0.00,,,0.00,weatherlink.com 1.10,2013-01-07 11:32:00,
2013-01-07 06:47:00,28.6,24.0,30.39,ESE,105,0.0,4.0,82,0.00,,,0.00,weatherlink.com 1.10,2013-01-07 11:47:00,
2013-01-07 07:02:00,28.1,24.0,30.39,East,92,0.0,5.0,83,0.00,,,0.00,weatherlink.com 1.10,2013-01-07 12:02:00,
2013-01-07 07:17:00,28.1,24.0,30.40,ESE,114,0.0,6.0,84,0.00,,,0.00,weatherlink.com 1.10,2013-01-07 12:17:00,
2013-01-07 07:32:00,28.3,24.0,30.42,ESE,104,2.0,5.0,83,0.00,,,0.00,weatherlink.com 1.10,2013-01-07 12:32:00,
2013-01-07 07:47:00,28.4,24.0,30.42,SE,132,1.0,7.0,83,0.00,,,0.00,weatherlink.com 1.10,2013-01-07 12:47:00,
2013-01-07 08:02:00,28.2,24.0,30.43,NE,49,1.0,6.0,83,0.00,,,0.00,weatherlink.com 1.10,2013-01-07 13:02:00,
2013-01-07 08:17:00,28.0,24.0,30.44,East,98,0.0,5.0,84,0.00,,,0.00,weatherlink.com 1.10,2013-01-07 13:17:00,
2013-01-07 08:32:00,28.2,24.0,30.44,ESE,111,1.0,4.0,84,0.00,,,0.00,weatherlink.com 1.10,2013-01-07 13:32:00,
2013-01-07 08:48:00,28.5,24.0,30.45,ESE,104,1.0,7.0,83,0.00,,,0.00,weatherlink.com 1.10,2013-01-07 13:48:00,
2013-01-07 09:03:00,29.0,25.0,30.45,ESE,116,2.0,7.0,83,0.00,,,0.00,weatherlink.com 1.10,2013-01-07 14:03:00,
2013-01-07 09:18:00,29.4,25.0,30.45,ESE,108,0.0,7.0,82,0.00,,,0.00,weatherlink.com 1.10,2013-01-07 14:18:00,
2013-01-07 09:33:00,29.8,25.0,30.45,ESE,107,3.0,5.0,82,0.00,,,0.00,weatherlink.com 1.10,2013-01-07 14:33:00,
2013-01-07 09:48:00,30.3,25.0,30.45,ESE,107,2.0,6.0,81,0.00,,,0.00,weatherlink.com 1.10,2013-01-07 14:48:00,
2013-01-07 10:03:00,30.9,25.0,30.45,ESE,109,0.0,6.0,79,0.00,,,0.00,weatherlink.com 1.10,2013-01-07 15:03:00,
2013-01-07 10:18:00,31.4,25.0,30.45,ESE,111,0.0,3.0,78,0.00,,,0.00,weatherlink.com 1.10,2013-01-07 15:18:00,
2013-01-07 10:33:00,31.6,25.0,30.45,ENE,74,0.0,1.0,77,0.00,,,0.00,weatherlink.com 1.10,2013-01-07 15:33:00,
2013-01-07 10:48:00,31.9,25.0,30.45,ENE,74,0.0,1.0,77,0.00,,,0.00,weatherlink.com 1.10,2013-01-07 15:48:00,
2013-01-07 11:03:00,32.9,26.0,30.44,ENE,74,0.0,2.0,76,0.00,,,0.00,weatherlink.com 1.10,2013-01-07 16:03:00,
2013-01-07 11:18:00,34.7,26.0,30.44,ENE,74,0.0,1.0,70,0.00,,,0.00,weatherlink.com 1.10,2013-01-07 16:18:00,
2013-01-07 11:33:00,36.1,26.0,30.44,ENE,74,0.0,1.0,68,0.00,,,0.00,weatherlink.com 1.10,2013-01-07 16:33:00,
2013-01-07 11:48:00,37.1,25.0,30.43,SE,128,1.0,2.0,63,0.00,,,0.00,weatherlink.com 1.10,2013-01-07 16:48:00,
2013-01-07 12:03:00,38.9,25.0,30.41,West,261,0.0,3.0,59,0.00,,,0.00,weatherlink.com 1.10,2013-01-07 17:03:00,
2013-01-07 12:18:00,41.0,27.0,30.41,SW,218,0.0,4.0,57,0.00,,,0.00,weatherlink.com 1.10,2013-01-07 17:18:00,
2013-01-07 12:33:00,42.7,27.0,30.39,WSW,250,0.0,4.0,54,0.00,,,0.00,weatherlink.com 1.10,2013-01-07 17:33:00,
2013-01-07 12:48:00,43.7,27.0,30.39,WSW,250,1.0,2.0,52,0.00,,,0.00,weatherlink.com 1.10,2013-01-07 17:48:00,
2013-01-07 13:03:00,45.6,27.0,30.38,SW,232,3.0,4.0,49,0.00,,,0.00,weatherlink.com 1.10,2013-01-07 18:03:00,
2013-01-07 13:18:00,46.6,27.0,30.39,SSW,205,1.0,2.0,46,0.00,,,0.00,weatherlink.com 1.10,2013-01-07 18:18:00,
2013-01-07 13:33:00,46.6,27.0,30.38,SW,236,2.0,6.0,46,0.00,,,0.00,weatherlink.com 1.10,2013-01-07 18:33:00,
2013-01-07 13:48:00,46.3,25.0,30.38,NW,321,0.0,4.0,44,0.00,,,0.00,weatherlink.com 1.10,2013-01-07 18:48:00,
2013-01-07 14:03:00,46.0,26.0,30.38,ESE,117,1.0,5.0,45,0.00,,,0.00,weatherlink.com 1.10,2013-01-07 19:03:00,
2013-01-07 14:18:00,46.0,26.0,30.38,West,260,2.0,5.0,45,0.00,,,0.00,weatherlink.com 1.10,2013-01-07 19:18:00,
2013-01-07 14:33:00,46.0,26.0,30.37,SW,226,5.0,8.0,45,0.00,,,0.00,weatherlink.com 1.10,2013-01-07 19:33:00,
2013-01-07 14:48:00,45.6,25.0,30.37,SW,231,5.0,7.0,44,0.00,,,0.00,weatherlink.com 1.10,2013-01-07 19:48:00,
2013-01-07 15:03:00,45.3,24.0,30.38,WSW,238,5.0,8.0,44,0.00,,,0.00,weatherlink.com 1.10,2013-01-07 20:03:00,
2013-01-07 15:18:00,45.2,24.0,30.38,West,267,6.0,8.0,44,0.00,,,0.00,weatherlink.com 1.10,2013-01-07 20:18:00,
2013-01-07 15:33:00,44.9,25.0,30.39,West,260,0.0,9.0,45,0.00,,,0.00,weatherlink.com 1.10,2013-01-07 20:33:00,
2013-01-07 15:48:00,44.3,25.0,30.39,West,259,0.0,2.0,46,0.00,,,0.00,weatherlink.com 1.10,2013-01-07 20:48:00,
2013-01-07 16:03:00,43.3,24.0,30.39,WSW,245,0.0,3.0,47,0.00,,,0.00,weatherlink.com 1.10,2013-01-07 21:03:00,
2013-01-07 16:18:00,42.8,25.0,30.39,WSW,252,0.0,2.0,50,0.00,,,0.00,weatherlink.com 1.10,2013-01-07 21:18:00,
2013-01-07 16:33:00,41.8,25.0,30.39,SW,236,0.0,2.0,51,0.00,,,0.00,weatherlink.com 1.10,2013-01-07 21:33:00,
2013-01-07 16:48:00,41.3,25.0,30.39,WNW,290,0.0,3.0,53,0.00,,,0.00,weatherlink.com 1.10,2013-01-07 21:48:00,
2013-01-07 17:03:00,40.4,25.0,30.40,NW,306,0.0,1.0,55,0.00,,,0.00,weatherlink.com 1.10,2013-01-07 22:03:00,
2013-01-07 17:18:00,39.5,26.0,30.40,NW,306,0.0,1.0,58,0.00,,,0.00,weatherlink.com 1.10,2013-01-07 22:18:00,
2013-01-07 17:33:00,38.8,25.0,30.41,West,279,1.0,3.0,58,0.00,,,0.00,weatherlink.com 1.10,2013-01-07 22:33:00,
2013-01-07 17:48:00,37.9,25.0,30.42,WSW,254,0.0,2.0,61,0.00,,,0.00,weatherlink.com 1.10,2013-01-07 22:48:00,
2013-01-07 18:03:00,37.1,25.0,30.42,West,265,0.0,2.0,62,0.00,,,0.00,weatherlink.com 1.10,2013-01-07 23:03:00,
2013-01-07 18:18:00,36.4,25.0,30.43,West,265,0.0,2.0,63,0.00,,,0.00,weatherlink.com 1.10,2013-01-07 23:18:00,
2013-01-07 18:33:00,36.1,25.0,30.43,West,265,0.0,2.0,64,0.00,,,0.00,weatherlink.com 1.10,2013-01-07 23:33:00,
2013-01-07 18:48:00,34.9,25.0,30.43,West,273,0.0,2.0,68,0.00,,,0.00,weatherlink.com 1.10,2013-01-07 23:48:00,
2013-01-07 19:03:00,33.4,25.0,30.43,West,273,0.0,1.0,70,0.00,,,0.00,weatherlink.com 1.10,2013-01-08 00:03:00,
2013-01-07 19:18:00,32.0,25.0,30.43,West,273,0.0,0.0,74,0.00,,,0.00,weatherlink.com 1.10,2013-01-08 00:18:00,
2013-01-07 19:34:00,30.9,25.0,30.43,West,273,0.0,1.0,77,0.00,,,0.00,weatherlink.com 1.10,2013-01-08 00:34:00,
2013-01-07 19:49:00,30.0,25.0,30.43,West,273,0.0,1.0,80,0.00,,,0.00,weatherlink.com 1.10,2013-01-08 00:49:00,
2013-01-07 20:04:00,29.4,24.0,30.43,West,273,0.0,1.0,81,0.00,,,0.00,weatherlink.com 1.10,2013-01-08 01:04:00,
2013-01-07 20:19:00,28.7,24.0,30.42,West,273,0.0,1.0,82,0.00,,,0.00,weatherlink.com 1.10,2013-01-08 01:19:00,
2013-01-07 20:34:00,28.1,24.0,30.42,West,273,0.0,2.0,83,0.00,,,0.00,weatherlink.com 1.10,2013-01-08 01:34:00,
2013-01-07 20:49:00,27.6,23.0,30.43,West,273,0.0,0.0,84,0.00,,,0.00,weatherlink.com 1.10,2013-01-08 01:49:00,
2013-01-07 21:04:00,27.1,23.0,30.43,West,273,0.0,0.0,85,0.00,,,0.00,weatherlink.com 1.10,2013-01-08 02:04:00,
2013-01-07 21:19:00,26.8,23.0,30.43,West,273,0.0,1.0,86,0.00,,,0.00,weatherlink.com 1.10,2013-01-08 02:19:00,
2013-01-07 21:34:00,26.5,23.0,30.42,West,273,0.0,1.0,87,0.00,,,0.00,weatherlink.com 1.10,2013-01-08 02:34:00,
2013-01-07 21:49:00,26.9,23.0,30.41,West,273,0.0,0.0,86,0.00,,,0.00,weatherlink.com 1.10,2013-01-08 02:49:00,
2013-01-07 22:04:00,26.4,23.0,30.41,West,273,0.0,2.0,87,0.00,,,0.00,weatherlink.com 1.10,2013-01-08 03:04:00,
2013-01-07 22:19:00,26.6,24.0,30.41,West,273,0.0,2.0,88,0.00,,,0.00,weatherlink.com 1.10,2013-01-08 03:19:00,
2013-01-07 22:34:00,26.6,23.0,30.42,West,273,0.0,2.0,87,0.00,,,0.00,weatherlink.com 1.10,2013-01-08 03:34:00,
2013-01-07 22:49:00,27.1,24.0,30.42,West,273,0.0,2.0,88,0.00,,,0.00,weatherlink.com 1.10,2013-01-08 03:49:00,
2013-01-07 23:04:00,30.1,25.0,30.42,NNW,346,1.0,4.0,81,0.00,,,0.00,weatherlink.com 1.10,2013-01-08 04:04:00,
2013-01-07 23:19:00,31.7,25.0,30.41,NNW,338,2.0,3.0,77,0.00,,,0.00,weatherlink.com 1.10,2013-01-08 04:19:00,
2013-01-07 23:34:00,32.3,25.0,30.41,NW,324,2.0,3.0,75,0.00,,,0.00,weatherlink.com 1.10,2013-01-08 04:34:00,
2013-01-07 23:49:00,32.6,26.0,30.41,South,174,0.0,2.0,75,0.00,,,0.00,weatherlink.com 1.10,2013-01-08 04:49:00,